Time,TemperatureF,DewpointF,PressureIn,WindDirection,WindDirectionDegrees,WindSpeedMPH,WindSpeedGustMPH,Humidity,HourlyPrecipIn,Conditions,Clouds,dailyrainin,SoftwareType,DateUTC
2013-05-15 00:00:00,62.1,42.7,28.52,WNW,292,12.1,20.1,49,0.00,,---,0.00,VWS V14.01,2013-05-15 05:00:00,
2013-05-15 00:02:00,61.9,43.1,28.52,NNW,338,8.1,15.7,50,0.00,,---,0.00,VWS V14.01,2013-05-15 05:02:00,
2013-05-15 00:05:00,62.1,43.2,28.52,NNW,338,9.8,15.2,50,0.00,,---,0.00,VWS V14.01,2013-05-15 05:05:00,
2013-05-15 00:07:00,61.7,42.9,28.52,NNW,338,10.1,17.5,50,0.00,,---,0.00,VWS V14.01,2013-05-15 05:07:00,
2013-05-15 00:08:00,61.9,43.1,28.52,NW,315,10.5,12.3,50,0.00,,---,0.00,VWS V14.01,2013-05-15 05:08:00,
2013-05-15 00:10:00,61.9,43.1,28.52,NNW,338,14.1,15.7,50,0.00,,---,0.00,VWS V14.01,2013-05-15 05:10:00,
2013-05-15 00:12:00,61.7,42.9,28.52,NW,315,14.3,17.0,50,0.00,,---,0.00,VWS V14.01,2013-05-15 05:12:00,
2013-05-15 00:15:00,61.7,42.9,28.52,NW,315,13.9,17.5,50,0.00,,---,0.00,VWS V14.01,2013-05-15 05:15:00,
2013-05-15 00:17:00,61.7,42.4,28.55,NNW,338,9.8,14.5,49,0.00,,---,0.00,VWS V14.01,2013-05-15 05:17:00,
2013-05-15 00:20:00,61.7,42.9,28.52,NW,315,11.0,17.0,50,0.00,,---,0.00,VWS V14.01,2013-05-15 05:20:00,
2013-05-15 00:22:00,61.5,42.2,28.55,NNW,338,10.3,16.3,49,0.00,,---,0.00,VWS V14.01,2013-05-15 05:22:00,
2013-05-15 00:25:00,61.7,42.4,28.55,North,0,13.0,14.5,49,0.00,,---,0.00,VWS V14.01,2013-05-15 05:25:00,
2013-05-15 00:27:00,61.5,42.2,28.55,WNW,292,11.9,19.0,49,0.00,,---,0.00,VWS V14.01,2013-05-15 05:27:00,
2013-05-15 00:30:00,61.5,42.2,28.55,NNW,338,10.7,16.3,49,0.00,,---,0.00,VWS V14.01,2013-05-15 05:30:00,
2013-05-15 00:32:00,61.3,42.0,28.55,NNW,338,13.2,13.2,49,0.00,,---,0.00,VWS V14.01,2013-05-15 05:32:00,
2013-05-15 00:35:00,61.5,42.2,28.55,WNW,292,13.2,19.0,49,0.00,,---,0.00,VWS V14.01,2013-05-15 05:35:00,
2013-05-15 00:37:00,61.2,41.9,28.55,NNW,338,7.4,12.5,49,0.00,,---,0.00,VWS V14.01,2013-05-15 05:37:00,
2013-05-15 00:40:00,61.3,42.0,28.55,NNW,338,10.7,13.2,49,0.00,,---,0.00,VWS V14.01,2013-05-15 05:40:00,
2013-05-15 00:42:00,61.0,41.7,28.55,NNW,338,10.1,12.1,49,0.00,,---,0.00,VWS V14.01,2013-05-15 05:42:00,
2013-05-15 00:45:00,61.2,41.9,28.55,NNW,338,12.1,12.5,49,0.00,,---,0.00,VWS V14.01,2013-05-15 05:45:00,
2013-05-15 00:47:00,61.0,41.7,28.55,NNW,338,9.6,14.8,49,0.00,,---,0.00,VWS V14.01,2013-05-15 05:47:00,
2013-05-15 00:50:00,61.0,41.7,28.55,NNW,338,14.8,14.8,49,0.00,,---,0.00,VWS V14.01,2013-05-15 05:50:00,
2013-05-15 00:52:00,60.6,41.9,28.52,NNW,338,10.1,11.2,50,0.00,,---,0.00,VWS V14.01,2013-05-15 05:52:00,
2013-05-15 00:55:00,60.8,41.5,28.52,NW,315,7.8,14.8,49,0.00,,---,0.00,VWS V14.01,2013-05-15 05:55:00,
2013-05-15 00:57:00,60.4,41.7,28.52,NNW,338,7.6,12.5,50,0.00,,---,0.00,VWS V14.01,2013-05-15 05:57:00,
2013-05-15 01:00:00,60.6,41.9,28.52,NNW,338,10.1,11.2,50,0.00,,---,0.00,VWS V14.01,2013-05-15 06:00:00,
2013-05-15 01:02:00,60.4,41.7,28.55,NNW,338,8.5,14.3,50,0.00,,---,0.00,VWS V14.01,2013-05-15 06:02:00,
2013-05-15 01:05:00,60.4,41.7,28.52,North,0,7.4,12.5,50,0.00,,---,0.00,VWS V14.01,2013-05-15 06:05:00,
2013-05-15 01:07:00,60.3,41.6,28.55,North,0,10.1,14.3,50,0.00,,---,0.00,VWS V14.01,2013-05-15 06:07:00,
2013-05-15 01:12:00,60.3,41.0,28.55,NNW,338,7.8,12.5,49,0.00,,---,0.00,VWS V14.01,2013-05-15 06:12:00,
2013-05-15 01:15:00,60.3,41.6,28.55,NNW,338,10.5,14.3,50,0.00,,---,0.00,VWS V14.01,2013-05-15 06:15:00,
2013-05-15 01:17:00,60.1,40.9,28.55,North,0,7.4,12.1,49,0.00,,---,0.00,VWS V14.01,2013-05-15 06:17:00,
2013-05-15 01:20:00,60.3,41.0,28.55,NNW,338,6.5,12.5,49,0.00,,---,0.00,VWS V14.01,2013-05-15 06:20:00,
2013-05-15 01:22:00,59.9,40.7,28.55,NNW,338,5.4,10.5,49,0.00,,---,0.00,VWS V14.01,2013-05-15 06:22:00,
2013-05-15 01:25:00,60.1,40.9,28.55,North,0,7.4,12.1,49,0.00,,---,0.00,VWS V14.01,2013-05-15 06:25:00,
2013-05-15 01:27:00,59.7,40.5,28.55,NNW,338,5.6,10.5,49,0.00,,---,0.00,VWS V14.01,2013-05-15 06:27:00,
2013-05-15 01:30:00,59.9,40.7,28.55,NNW,338,7.6,10.5,49,0.00,,---,0.00,VWS V14.01,2013-05-15 06:30:00,
2013-05-15 01:32:00,59.4,40.2,28.58,NNW,338,6.9,8.1,49,0.00,,---,0.00,VWS V14.01,2013-05-15 06:32:00,
2013-05-15 01:35:00,59.7,40.5,28.55,NNW,338,6.7,10.5,49,0.00,,---,0.00,VWS V14.01,2013-05-15 06:35:00,
2013-05-15 01:37:00,59.0,39.9,28.58,NNW,338,8.7,8.7,49,0.00,,---,0.00,VWS V14.01,2013-05-15 06:37:00,
2013-05-15 01:40:00,59.2,40.0,28.58,NW,315,8.5,8.5,49,0.00,,---,0.00,VWS V14.01,2013-05-15 06:40:00,
2013-05-15 01:42:00,58.8,40.2,28.58,NNW,338,4.9,8.7,50,0.00,,---,0.00,VWS V14.01,2013-05-15 06:42:00,
2013-05-15 01:45:00,59.0,39.9,28.58,NNW,338,6.3,8.7,49,0.00,,---,0.00,VWS V14.01,2013-05-15 06:45:00,
2013-05-15 01:47:00,58.5,39.9,28.58,NNW,338,7.4,7.8,50,0.00,,---,0.00,VWS V14.01,2013-05-15 06:47:00,
2013-05-15 01:50:00,58.8,40.2,28.58,NNW,338,7.8,8.7,50,0.00,,---,0.00,VWS V14.01,2013-05-15 06:50:00,
2013-05-15 01:52:00,58.1,40.1,28.58,NNW,338,5.4,8.7,51,0.00,,---,0.00,VWS V14.01,2013-05-15 06:52:00,
2013-05-15 01:55:00,58.5,39.9,28.58,NNW,338,6.5,8.5,50,0.00,,---,0.00,VWS V14.01,2013-05-15 06:55:00,
2013-05-15 01:57:00,57.7,39.8,28.58,NNW,338,5.8,7.2,51,0.00,,---,0.00,VWS V14.01,2013-05-15 06:57:00,
2013-05-15 02:00:00,58.1,40.1,28.58,NNW,338,4.3,8.7,51,0.00,,---,0.00,VWS V14.01,2013-05-15 07:00:00,
2013-05-15 02:02:00,57.6,40.1,28.58,NNW,338,8.7,8.7,52,0.00,,---,0.00,VWS V14.01,2013-05-15 07:02:00,
2013-05-15 02:05:00,57.7,39.8,28.58,NNW,338,5.4,7.2,51,0.00,,---,0.00,VWS V14.01,2013-05-15 07:05:00,
2013-05-15 02:07:00,57.2,39.8,28.58,NNW,338,5.4,6.9,52,0.00,,---,0.00,VWS V14.01,2013-05-15 07:07:00,
2013-05-15 02:10:00,57.6,40.1,28.58,NNW,338,6.0,8.7,52,0.00,,---,0.00,VWS V14.01,2013-05-15 07:10:00,
2013-05-15 02:12:00,57.2,39.8,28.58,North,0,6.0,6.0,52,0.00,,---,0.00,VWS V14.01,2013-05-15 07:12:00,
2013-05-15 02:15:00,57.2,39.8,28.58,NNW,338,5.4,6.9,52,0.00,,---,0.00,VWS V14.01,2013-05-15 07:15:00,
2013-05-15 02:17:00,56.7,39.7,28.58,NNW,338,3.8,6.0,53,0.00,,---,0.00,VWS V14.01,2013-05-15 07:17:00,
2013-05-15 02:20:00,57.0,39.6,28.58,North,0,6.0,6.0,52,0.00,,---,0.00,VWS V14.01,2013-05-15 07:20:00,
2013-05-15 02:22:00,56.5,39.6,28.58,North,0,2.0,5.4,53,0.00,,---,0.00,VWS V14.01,2013-05-15 07:22:00,
2013-05-15 02:25:00,56.7,39.7,28.58,NNW,338,4.7,6.0,53,0.00,,---,0.00,VWS V14.01,2013-05-15 07:25:00,
2013-05-15 02:27:00,56.1,39.2,28.58,NNW,338,3.1,3.6,53,0.00,,---,0.00,VWS V14.01,2013-05-15 07:27:00,
2013-05-15 02:30:00,56.5,39.6,28.58,NNE,22,3.4,5.4,53,0.00,,---,0.00,VWS V14.01,2013-05-15 07:30:00,
2013-05-15 02:32:00,55.9,39.1,28.58,NNW,338,2.7,5.4,53,0.00,,---,0.00,VWS V14.01,2013-05-15 07:32:00,
2013-05-15 02:35:00,56.1,39.2,28.58,North,0,2.5,3.6,53,0.00,,---,0.00,VWS V14.01,2013-05-15 07:35:00,
2013-05-15 02:37:00,55.4,38.6,28.58,NNW,338,3.1,3.6,53,0.00,,---,0.00,VWS V14.01,2013-05-15 07:37:00,
2013-05-15 02:40:00,55.8,38.9,28.58,NNW,338,3.1,5.4,53,0.00,,---,0.00,VWS V14.01,2013-05-15 07:40:00,
2013-05-15 02:42:00,55.0,38.7,28.58,NNW,338,3.6,4.9,54,0.00,,---,0.00,VWS V14.01,2013-05-15 07:42:00,
2013-05-15 02:45:00,55.4,38.6,28.58,NNW,338,3.1,3.6,53,0.00,,---,0.00,VWS V14.01,2013-05-15 07:45:00,
2013-05-15 02:47:00,54.5,38.2,28.58,North,0,2.0,4.7,54,0.00,,---,0.00,VWS V14.01,2013-05-15 07:47:00,
2013-05-15 02:50:00,54.9,38.5,28.58,NNE,22,3.4,4.9,54,0.00,,---,0.00,VWS V14.01,2013-05-15 07:50:00,
2013-05-15 02:52:00,54.1,37.9,28.58,NNW,338,2.9,4.3,54,0.00,,---,0.00,VWS V14.01,2013-05-15 07:52:00,
2013-05-15 02:55:00,54.3,38.0,28.58,North,0,3.1,4.7,54,0.00,,---,0.00,VWS V14.01,2013-05-15 07:55:00,
2013-05-15 02:57:00,53.8,37.5,28.58,NNW,338,1.6,2.9,54,0.00,,---,0.00,VWS V14.01,2013-05-15 07:57:00,
2013-05-15 03:00:00,54.1,37.9,28.58,North,0,2.2,4.3,54,0.00,,---,0.00,VWS V14.01,2013-05-15 08:00:00,
2013-05-15 03:02:00,53.6,37.4,28.58,NNW,338,2.0,3.8,54,0.00,,---,0.00,VWS V14.01,2013-05-15 08:02:00,
2013-05-15 03:05:00,53.8,37.5,28.58,North,0,3.1,3.1,54,0.00,,---,0.00,VWS V14.01,2013-05-15 08:05:00,
2013-05-15 03:07:00,53.2,37.5,28.61,NW,315,0.9,3.8,55,0.00,,---,0.00,VWS V14.01,2013-05-15 08:07:00,
2013-05-15 03:12:00,53.1,37.3,28.61,NW,315,1.6,2.7,55,0.00,,---,0.00,VWS V14.01,2013-05-15 08:12:00,
2013-05-15 03:15:00,53.2,37.5,28.61,WNW,292,2.7,3.8,55,0.00,,---,0.00,VWS V14.01,2013-05-15 08:15:00,
2013-05-15 03:17:00,53.2,37.5,28.61,North,0,0.0,2.2,55,0.00,,---,0.00,VWS V14.01,2013-05-15 08:17:00,
2013-05-15 03:20:00,53.2,37.5,28.61,NNW,338,0.0,2.7,55,0.00,,---,0.00,VWS V14.01,2013-05-15 08:20:00,
2013-05-15 03:22:00,53.2,37.5,28.61,NNE,22,0.0,2.2,55,0.00,,---,0.00,VWS V14.01,2013-05-15 08:22:00,
2013-05-15 03:25:00,53.2,37.5,28.61,North,0,1.6,2.2,55,0.00,,---,0.00,VWS V14.01,2013-05-15 08:25:00,
2013-05-15 03:27:00,53.2,38.0,28.61,North,0,2.5,2.5,56,0.00,,---,0.00,VWS V14.01,2013-05-15 08:27:00,
2013-05-15 03:30:00,53.2,37.5,28.61,North,0,0.0,2.2,55,0.00,,---,0.00,VWS V14.01,2013-05-15 08:30:00,
2013-05-15 03:32:00,52.9,37.6,28.61,NNW,338,1.6,2.7,56,0.00,,---,0.00,VWS V14.01,2013-05-15 08:32:00,
2013-05-15 03:35:00,53.2,38.0,28.61,North,0,2.5,2.5,56,0.00,,---,0.00,VWS V14.01,2013-05-15 08:35:00,
2013-05-15 03:37:00,52.5,37.3,28.61,NNW,338,1.3,2.5,56,0.00,,---,0.00,VWS V14.01,2013-05-15 08:37:00,
2013-05-15 03:40:00,52.9,37.6,28.61,NNW,338,1.6,2.7,56,0.00,,---,0.00,VWS V14.01,2013-05-15 08:40:00,
2013-05-15 03:42:00,52.3,37.6,28.61,NW,315,0.0,0.0,57,0.00,,---,0.00,VWS V14.01,2013-05-15 08:42:00,
2013-05-15 03:45:00,52.5,37.3,28.61,NNW,338,0.0,2.5,56,0.00,,---,0.00,VWS V14.01,2013-05-15 08:45:00,
2013-05-15 03:47:00,51.8,37.1,28.61,WNW,292,0.0,2.7,57,0.00,,---,0.00,VWS V14.01,2013-05-15 08:47:00,
2013-05-15 03:50:00,52.2,37.4,28.61,NW,315,0.0,0.0,57,0.00,,---,0.00,VWS V14.01,2013-05-15 08:50:00,
2013-05-15 03:52:00,52.0,38.1,28.61,WNW,292,0.0,0.0,59,0.00,,---,0.00,VWS V14.01,2013-05-15 08:52:00,
2013-05-15 03:55:00,51.8,37.1,28.61,WNW,292,0.0,2.7,57,0.00,,---,0.00,VWS V14.01,2013-05-15 08:55:00,
2013-05-15 03:57:00,51.8,38.8,28.61,WNW,292,2.0,2.0,61,0.00,,---,0.00,VWS V14.01,2013-05-15 08:57:00,
2013-05-15 04:00:00,52.0,38.1,28.61,WNW,292,0.0,0.0,59,0.00,,---,0.00,VWS V14.01,2013-05-15 09:00:00,
2013-05-15 04:02:00,51.6,38.6,28.61,NW,315,4.7,4.7,61,0.00,,---,0.00,VWS V14.01,2013-05-15 09:02:00,
2013-05-15 04:05:00,51.8,38.8,28.61,WNW,292,1.3,2.2,61,0.00,,---,0.00,VWS V14.01,2013-05-15 09:05:00,
2013-05-15 04:07:00,51.4,38.0,28.61,WNW,292,3.4,4.0,60,0.00,,---,0.00,VWS V14.01,2013-05-15 09:07:00,
2013-05-15 04:10:00,51.6,38.6,28.61,NW,315,4.0,4.7,61,0.00,,---,0.00,VWS V14.01,2013-05-15 09:10:00,
2013-05-15 04:12:00,51.4,38.9,28.61,WNW,292,2.2,3.4,62,0.00,,---,0.00,VWS V14.01,2013-05-15 09:12:00,
2013-05-15 04:15:00,51.4,38.0,28.61,WNW,292,2.7,4.0,60,0.00,,---,0.00,VWS V14.01,2013-05-15 09:15:00,
2013-05-15 04:17:00,51.8,41.6,28.61,WSW,248,0.0,2.5,68,0.00,,---,0.00,VWS V14.01,2013-05-15 09:17:00,
2013-05-15 04:20:00,51.4,39.3,28.61,WNW,292,2.0,3.4,63,0.00,,---,0.00,VWS V14.01,2013-05-15 09:20:00,
2013-05-15 04:22:00,51.8,41.6,28.61,WSW,248,0.0,2.5,68,0.00,,---,0.00,VWS V14.01,2013-05-15 09:22:00,
2013-05-15 04:25:00,51.8,41.6,28.61,WSW,248,0.0,2.5,68,0.00,,---,0.00,VWS V14.01,2013-05-15 09:25:00,
2013-05-15 04:27:00,52.0,42.1,28.61,WSW,248,0.0,2.2,69,0.00,,---,0.00,VWS V14.01,2013-05-15 09:27:00,
2013-05-15 04:30:00,51.8,41.6,28.61,WSW,248,1.6,2.5,68,0.00,,---,0.00,VWS V14.01,2013-05-15 09:30:00,
2013-05-15 04:32:00,52.0,42.1,28.61,SSW,202,0.0,2.2,69,0.00,,---,0.00,VWS V14.01,2013-05-15 09:32:00,
2013-05-15 04:37:00,52.3,42.9,28.61,SW,225,4.0,4.0,70,0.00,,---,0.00,VWS V14.01,2013-05-15 09:37:00,
2013-05-15 04:40:00,52.0,42.1,28.61,WSW,248,2.5,2.5,69,0.00,,---,0.00,VWS V14.01,2013-05-15 09:40:00,
2013-05-15 04:42:00,51.8,42.7,28.61,WSW,248,3.4,4.9,71,0.00,,---,0.00,VWS V14.01,2013-05-15 09:42:00,
2013-05-15 04:45:00,52.3,42.9,28.61,SW,225,4.0,4.0,70,0.00,,---,0.00,VWS V14.01,2013-05-15 09:45:00,
2013-05-15 04:47:00,51.4,42.4,28.58,SW,225,2.9,4.0,71,0.00,,---,0.00,VWS V14.01,2013-05-15 09:47:00,
2013-05-15 04:50:00,51.8,42.7,28.61,SW,225,4.0,4.9,71,0.00,,---,0.00,VWS V14.01,2013-05-15 09:50:00,
2013-05-15 04:52:00,51.1,42.0,28.58,WNW,292,4.3,5.4,71,0.00,,---,0.00,VWS V14.01,2013-05-15 09:52:00,
2013-05-15 04:55:00,51.4,42.4,28.58,WSW,248,3.1,4.0,71,0.00,,---,0.00,VWS V14.01,2013-05-15 09:55:00,
2013-05-15 04:57:00,50.7,42.0,28.58,West,270,3.8,4.7,72,0.00,,---,0.00,VWS V14.01,2013-05-15 09:57:00,
2013-05-15 05:00:00,50.7,41.3,28.58,WNW,292,3.4,5.4,70,0.00,,---,0.00,VWS V14.01,2013-05-15 10:00:00,
2013-05-15 05:02:00,50.9,41.8,28.58,WSW,248,3.1,4.0,71,0.00,,---,0.00,VWS V14.01,2013-05-15 10:02:00,
2013-05-15 05:05:00,50.7,42.0,28.58,WNW,292,3.8,4.7,72,0.00,,---,0.00,VWS V14.01,2013-05-15 10:05:00,
2013-05-15 05:07:00,50.5,41.1,28.61,West,270,3.1,3.4,70,0.00,,---,0.00,VWS V14.01,2013-05-15 10:07:00,
2013-05-15 05:10:00,50.9,41.8,28.61,WSW,248,3.4,4.0,71,0.00,,---,0.00,VWS V14.01,2013-05-15 10:10:00,
2013-05-15 05:12:00,50.2,41.9,28.61,WSW,248,4.9,4.9,73,0.00,,---,0.00,VWS V14.01,2013-05-15 10:12:00,
2013-05-15 05:15:00,50.4,41.0,28.61,WSW,248,4.7,4.7,70,0.00,,---,0.00,VWS V14.01,2013-05-15 10:15:00,
2013-05-15 05:17:00,50.2,41.9,28.61,WSW,248,4.0,5.4,73,0.00,,---,0.00,VWS V14.01,2013-05-15 10:17:00,
2013-05-15 05:20:00,50.2,42.2,28.61,WSW,248,4.0,4.9,74,0.00,,---,0.00,VWS V14.01,2013-05-15 10:20:00,
2013-05-15 05:22:00,49.8,41.9,28.64,WSW,248,2.9,4.3,74,0.00,,---,0.00,VWS V14.01,2013-05-15 10:22:00,
2013-05-15 05:25:00,50.2,41.9,28.64,WSW,248,3.8,5.4,73,0.00,,---,0.00,VWS V14.01,2013-05-15 10:25:00,
2013-05-15 05:27:00,49.6,41.7,28.64,WSW,248,2.9,3.6,74,0.00,,---,0.00,VWS V14.01,2013-05-15 10:27:00,
2013-05-15 05:30:00,49.8,41.9,28.64,WSW,248,3.6,4.3,74,0.00,,---,0.00,VWS V14.01,2013-05-15 10:30:00,
2013-05-15 05:32:00,49.5,41.9,28.64,SW,225,2.7,3.8,75,0.00,,---,0.00,VWS V14.01,2013-05-15 10:32:00,
2013-05-15 05:35:00,49.6,41.7,28.64,WSW,248,2.5,3.6,74,0.00,,---,0.00,VWS V14.01,2013-05-15 10:35:00,
2013-05-15 05:37:00,49.5,41.9,28.64,WSW,248,4.3,4.3,75,0.00,,---,0.00,VWS V14.01,2013-05-15 10:37:00,
2013-05-15 05:40:00,49.5,41.9,28.64,SW,225,2.9,3.8,75,0.00,,---,0.00,VWS V14.01,2013-05-15 10:40:00,
2013-05-15 05:42:00,49.3,41.7,28.64,WSW,248,4.7,4.9,75,0.00,,---,0.00,VWS V14.01,2013-05-15 10:42:00,
2013-05-15 05:45:00,49.5,41.9,28.64,WSW,248,3.6,4.3,75,0.00,,---,0.00,VWS V14.01,2013-05-15 10:45:00,
2013-05-15 05:47:00,48.9,41.4,28.67,WSW,248,3.6,4.3,75,0.00,,---,0.00,VWS V14.01,2013-05-15 10:47:00,
2013-05-15 05:50:00,49.1,41.5,28.64,WSW,248,4.3,4.9,75,0.00,,---,0.00,VWS V14.01,2013-05-15 10:50:00,
2013-05-15 05:52:00,48.9,41.4,28.67,WSW,248,3.1,4.9,75,0.00,,---,0.00,VWS V14.01,2013-05-15 10:52:00,
2013-05-15 05:55:00,48.9,41.4,28.67,WSW,248,3.8,4.3,75,0.00,,---,0.00,VWS V14.01,2013-05-15 10:55:00,
2013-05-15 05:57:00,49.1,41.5,28.67,West,270,4.0,4.9,75,0.00,,---,0.00,VWS V14.01,2013-05-15 10:57:00,
2013-05-15 06:00:00,48.9,41.4,28.67,WSW,248,2.9,4.9,75,0.00,,---,0.00,VWS V14.01,2013-05-15 11:00:00,
2013-05-15 06:02:00,49.3,41.4,28.64,WNW,292,2.5,4.7,74,0.00,,---,0.00,VWS V14.01,2013-05-15 11:02:00,
2013-05-15 06:05:00,49.1,41.5,28.67,West,270,3.8,4.9,75,0.00,,---,0.00,VWS V14.01,2013-05-15 11:05:00,
2013-05-15 06:07:00,49.1,40.8,28.64,WNW,292,2.0,2.5,73,0.00,,---,0.00,VWS V14.01,2013-05-15 11:07:00,
2013-05-15 06:10:00,49.3,41.4,28.64,WNW,292,1.3,4.7,74,0.00,,---,0.00,VWS V14.01,2013-05-15 11:10:00,
2013-05-15 06:12:00,49.1,40.5,28.64,WNW,292,3.4,3.4,72,0.00,,---,0.00,VWS V14.01,2013-05-15 11:12:00,
2013-05-15 06:15:00,49.1,40.8,28.64,WNW,292,2.0,2.5,73,0.00,,---,0.00,VWS V14.01,2013-05-15 11:15:00,
2013-05-15 06:17:00,48.9,39.6,28.67,West,270,3.4,4.3,70,0.00,,---,0.00,VWS V14.01,2013-05-15 11:17:00,
2013-05-15 06:20:00,49.1,40.1,28.64,WNW,292,3.1,3.4,71,0.00,,---,0.00,VWS V14.01,2013-05-15 11:20:00,
2013-05-15 06:23:00,49.1,42.2,28.67,WSW,248,3.1,3.8,77,0.00,,---,0.00,VWS V14.01,2013-05-15 11:23:00,
2013-05-15 06:25:00,48.9,39.6,28.67,West,270,3.4,4.3,70,0.00,,---,0.00,VWS V14.01,2013-05-15 11:25:00,
2013-05-15 06:28:00,50.0,43.4,28.67,WSW,248,3.6,3.8,78,0.00,,---,0.00,VWS V14.01,2013-05-15 11:28:00,
2013-05-15 06:30:00,49.1,42.2,28.67,WSW,248,3.8,4.0,77,0.00,,---,0.00,VWS V14.01,2013-05-15 11:30:00,
2013-05-15 06:33:00,51.1,43.8,28.67,WSW,248,2.2,3.8,76,0.00,,---,0.00,VWS V14.01,2013-05-15 11:33:00,
2013-05-15 06:35:00,49.8,43.2,28.67,WSW,248,3.8,3.8,78,0.00,,---,0.00,VWS V14.01,2013-05-15 11:35:00,
2013-05-15 06:39:00,51.4,43.4,28.67,WSW,248,0.0,0.0,74,0.00,,---,0.00,VWS V14.01,2013-05-15 11:39:00,
2013-05-15 06:44:00,51.8,43.8,28.67,SW,225,2.0,2.5,74,0.00,,---,0.00,VWS V14.01,2013-05-15 11:44:00,
2013-05-15 06:45:00,51.3,43.3,28.67,WSW,248,0.0,3.8,74,0.00,,---,0.00,VWS V14.01,2013-05-15 11:45:00,
2013-05-15 06:49:00,52.3,44.3,28.67,WSW,248,2.7,2.7,74,0.00,,---,0.00,VWS V14.01,2013-05-15 11:49:00,
2013-05-15 06:50:00,51.6,43.6,28.67,WSW,248,2.5,2.9,74,0.00,,---,0.00,VWS V14.01,2013-05-15 11:50:00,
2013-05-15 06:54:00,52.5,44.1,28.67,SW,225,3.1,3.1,73,0.00,,---,0.00,VWS V14.01,2013-05-15 11:54:00,
2013-05-15 06:55:00,52.2,44.1,28.67,WSW,248,0.0,2.7,74,0.00,,---,0.00,VWS V14.01,2013-05-15 11:55:00,
2013-05-15 06:59:00,52.7,44.3,28.67,WSW,248,2.9,2.9,73,0.00,,---,0.00,VWS V14.01,2013-05-15 11:59:00,
2013-05-15 07:00:00,52.3,44.0,28.67,WSW,248,2.5,2.7,73,0.00,,---,0.00,VWS V14.01,2013-05-15 12:00:00,
2013-05-15 07:04:00,53.1,44.3,28.67,SW,225,2.7,2.9,72,0.00,,---,0.00,VWS V14.01,2013-05-15 12:04:00,
2013-05-15 07:05:00,52.5,44.1,28.67,WSW,248,2.9,3.4,73,0.00,,---,0.00,VWS V14.01,2013-05-15 12:05:00,
2013-05-15 07:09:00,53.4,45.0,28.67,WSW,248,2.7,3.6,73,0.00,,---,0.00,VWS V14.01,2013-05-15 12:09:00,
2013-05-15 07:10:00,52.9,44.5,28.67,WSW,248,2.7,2.9,73,0.00,,---,0.00,VWS V14.01,2013-05-15 12:10:00,
2013-05-15 07:15:00,53.6,44.4,28.67,WSW,248,1.6,2.7,71,0.00,,---,0.00,VWS V14.01,2013-05-15 12:15:00,
2013-05-15 07:20:00,53.8,44.2,28.67,WSW,248,0.0,1.6,70,0.00,,---,0.00,VWS V14.01,2013-05-15 12:20:00,
2013-05-15 07:25:00,54.1,44.2,28.67,WSW,248,0.0,0.0,69,0.00,,---,0.00,VWS V14.01,2013-05-15 12:25:00,
2013-05-15 07:30:00,54.1,44.2,28.67,WSW,248,0.0,0.0,69,0.00,,---,0.00,VWS V14.01,2013-05-15 12:30:00,
2013-05-15 07:35:00,54.3,44.8,28.67,ENE,68,0.0,0.0,70,0.00,,---,0.00,VWS V14.01,2013-05-15 12:35:00,
2013-05-15 07:40:00,54.1,44.6,28.67,ENE,68,0.0,0.0,70,0.00,,---,0.00,VWS V14.01,2013-05-15 12:40:00,
2013-05-15 07:45:00,54.5,44.5,28.67,SSW,202,0.0,0.0,69,0.00,,---,0.00,VWS V14.01,2013-05-15 12:45:00,
2013-05-15 07:50:00,54.7,45.5,28.64,SSW,202,0.0,0.0,71,0.00,,---,0.00,VWS V14.01,2013-05-15 12:50:00,
2013-05-15 07:55:00,54.5,44.9,28.64,South,180,0.0,0.0,70,0.00,,---,0.00,VWS V14.01,2013-05-15 12:55:00,
2013-05-15 07:56:00,55.6,46.0,28.64,SSW,202,0.0,1.1,70,0.00,,---,0.00,VWS V14.01,2013-05-15 12:56:00,
2013-05-15 08:00:00,55.0,45.8,28.64,SSW,202,0.0,0.0,71,0.00,,---,0.00,VWS V14.01,2013-05-15 13:00:00,
2013-05-15 08:01:00,56.3,45.5,28.64,SSW,202,0.0,1.3,67,0.00,,---,0.00,VWS V14.01,2013-05-15 13:01:00,
2013-05-15 08:05:00,55.9,45.9,28.64,SSW,202,1.3,1.3,69,0.00,,---,0.00,VWS V14.01,2013-05-15 13:05:00,
2013-05-15 08:06:00,56.3,45.5,28.67,SSW,202,0.0,0.0,67,0.00,,---,0.00,VWS V14.01,2013-05-15 13:06:00,
2013-05-15 08:10:00,56.3,45.5,28.67,SSW,202,0.0,1.3,67,0.00,,---,0.00,VWS V14.01,2013-05-15 13:10:00,
2013-05-15 08:11:00,55.8,45.4,28.67,SSW,202,0.0,0.0,68,0.00,,---,0.00,VWS V14.01,2013-05-15 13:11:00,
2013-05-15 08:15:00,56.1,45.3,28.67,SSW,202,0.0,0.0,67,0.00,,---,0.00,VWS V14.01,2013-05-15 13:15:00,
2013-05-15 08:16:00,55.6,45.2,28.67,NE,45,0.0,0.0,68,0.00,,---,0.00,VWS V14.01,2013-05-15 13:16:00,
2013-05-15 08:20:00,55.6,45.2,28.67,SSW,202,0.0,0.0,68,0.00,,---,0.00,VWS V14.01,2013-05-15 13:20:00,
2013-05-15 08:21:00,55.2,45.2,28.67,NE,45,2.7,2.7,69,0.00,,---,0.00,VWS V14.01,2013-05-15 13:21:00,
2013-05-15 08:25:00,55.6,45.2,28.67,NE,45,2.5,2.5,68,0.00,,---,0.00,VWS V14.01,2013-05-15 13:25:00,
2013-05-15 08:26:00,55.4,45.0,28.67,NE,45,2.5,2.7,68,0.00,,---,0.00,VWS V14.01,2013-05-15 13:26:00,
2013-05-15 08:30:00,55.2,45.2,28.67,NE,45,2.5,2.7,69,0.00,,---,0.00,VWS V14.01,2013-05-15 13:30:00,
2013-05-15 08:32:00,55.9,45.5,28.64,ENE,68,2.7,2.9,68,0.00,,---,0.00,VWS V14.01,2013-05-15 13:32:00,
2013-05-15 08:35:00,55.4,45.0,28.67,ENE,68,2.9,2.9,68,0.00,,---,0.00,VWS V14.01,2013-05-15 13:35:00,
2013-05-15 08:37:00,56.5,45.7,28.64,East,90,2.9,3.1,67,0.00,,---,0.00,VWS V14.01,2013-05-15 13:37:00,
2013-05-15 08:40:00,55.9,45.5,28.64,ENE,68,2.5,2.9,68,0.00,,---,0.00,VWS V14.01,2013-05-15 13:40:00,
2013-05-15 08:42:00,56.5,45.7,28.64,East,90,2.9,3.6,67,0.00,,---,0.00,VWS V14.01,2013-05-15 13:42:00,
2013-05-15 08:45:00,56.5,45.7,28.64,East,90,2.7,3.1,67,0.00,,---,0.00,VWS V14.01,2013-05-15 13:45:00,
2013-05-15 08:47:00,56.1,45.3,28.67,East,90,2.0,3.6,67,0.00,,---,0.00,VWS V14.01,2013-05-15 13:47:00,
2013-05-15 08:50:00,56.5,45.7,28.64,ESE,112,2.7,3.6,67,0.00,,---,0.00,VWS V14.01,2013-05-15 13:50:00,
2013-05-15 08:52:00,56.1,45.3,28.67,East,90,2.0,2.5,67,0.00,,---,0.00,VWS V14.01,2013-05-15 13:52:00,
2013-05-15 08:55:00,56.1,45.3,28.67,East,90,1.6,3.6,67,0.00,,---,0.00,VWS V14.01,2013-05-15 13:55:00,
2013-05-15 08:57:00,56.3,45.5,28.67,East,90,0.0,2.0,67,0.00,,---,0.00,VWS V14.01,2013-05-15 13:57:00,
2013-05-15 09:00:00,56.1,45.3,28.67,East,90,2.0,2.5,67,0.00,,---,0.00,VWS V14.01,2013-05-15 14:00:00,
2013-05-15 09:02:00,56.8,45.6,28.67,East,90,2.5,3.1,66,0.00,,---,0.00,VWS V14.01,2013-05-15 14:02:00,
2013-05-15 09:05:00,56.3,45.5,28.67,East,90,0.0,2.0,67,0.00,,---,0.00,VWS V14.01,2013-05-15 14:05:00,
2013-05-15 09:07:00,57.4,45.7,28.67,East,90,0.0,2.5,65,0.00,,---,0.00,VWS V14.01,2013-05-15 14:07:00,
2013-05-15 09:10:00,56.8,45.6,28.67,East,90,2.5,3.1,66,0.00,,---,0.00,VWS V14.01,2013-05-15 14:10:00,
2013-05-15 09:12:00,57.9,45.8,28.67,East,90,0.0,0.0,64,0.00,,---,0.00,VWS V14.01,2013-05-15 14:12:00,
2013-05-15 09:15:00,57.6,45.5,28.67,East,90,0.0,2.5,64,0.00,,---,0.00,VWS V14.01,2013-05-15 14:15:00,
2013-05-15 09:17:00,58.5,45.9,28.67,SW,225,0.0,0.0,63,0.00,,---,0.00,VWS V14.01,2013-05-15 14:17:00,
2013-05-15 09:20:00,57.9,45.8,28.67,ESE,112,0.0,0.0,64,0.00,,---,0.00,VWS V14.01,2013-05-15 14:20:00,
2013-05-15 09:22:00,59.0,46.0,28.67,SSW,202,0.0,2.0,62,0.00,,---,0.00,VWS V14.01,2013-05-15 14:22:00,
2013-05-15 09:25:00,58.5,45.9,28.67,SW,225,0.0,0.0,63,0.00,,---,0.00,VWS V14.01,2013-05-15 14:25:00,
2013-05-15 09:27:00,59.4,45.9,28.67,SSW,202,0.0,1.6,61,0.00,,---,0.00,VWS V14.01,2013-05-15 14:27:00,
2013-05-15 09:30:00,59.0,46.0,28.67,SSW,202,0.0,2.0,62,0.00,,---,0.00,VWS V14.01,2013-05-15 14:30:00,
2013-05-15 09:32:00,60.6,47.1,28.67,SSW,202,2.0,2.0,61,0.00,,---,0.00,VWS V14.01,2013-05-15 14:32:00,
2013-05-15 09:37:00,61.5,47.1,28.67,SE,135,0.0,2.0,59,0.00,,---,0.00,VWS V14.01,2013-05-15 14:37:00,
2013-05-15 09:40:00,60.6,47.1,28.67,SSW,202,1.6,2.0,61,0.00,,---,0.00,VWS V14.01,2013-05-15 14:40:00,
2013-05-15 09:42:00,62.1,47.1,28.67,ESE,112,0.0,2.5,58,0.00,,---,0.00,VWS V14.01,2013-05-15 14:42:00,
2013-05-15 09:45:00,61.5,47.1,28.67,SE,135,0.0,2.0,59,0.00,,---,0.00,VWS V14.01,2013-05-15 14:45:00,
2013-05-15 09:48:00,62.1,46.7,28.67,SW,225,1.6,1.6,57,0.00,,---,0.00,VWS V14.01,2013-05-15 14:48:00,
2013-05-15 09:50:00,62.1,47.1,28.67,ESE,112,0.0,2.5,58,0.00,,---,0.00,VWS V14.01,2013-05-15 14:50:00,
2013-05-15 09:53:00,62.1,47.1,28.64,SSW,202,0.0,1.6,58,0.00,,---,0.00,VWS V14.01,2013-05-15 14:53:00,
2013-05-15 09:55:00,62.1,46.7,28.67,SW,225,1.6,2.0,57,0.00,,---,0.00,VWS V14.01,2013-05-15 14:55:00,
2013-05-15 09:58:00,62.4,46.1,28.64,SSW,202,0.0,1.6,55,0.00,,---,0.00,VWS V14.01,2013-05-15 14:58:00,
2013-05-15 10:03:00,62.4,46.1,28.64,WNW,292,2.9,2.9,55,0.00,,---,0.00,VWS V14.01,2013-05-15 15:03:00,
2013-05-15 10:05:00,62.4,46.1,28.64,SSW,202,0.0,1.6,55,0.00,,---,0.00,VWS V14.01,2013-05-15 15:05:00,
2013-05-15 10:08:00,63.3,44.9,28.64,WNW,292,2.9,2.9,51,0.00,,---,0.00,VWS V14.01,2013-05-15 15:08:00,
2013-05-15 10:10:00,62.4,46.1,28.64,WNW,292,2.9,2.9,55,0.00,,---,0.00,VWS V14.01,2013-05-15 15:10:00,
2013-05-15 10:13:00,63.3,44.9,28.64,WSW,248,4.3,4.3,51,0.00,,---,0.00,VWS V14.01,2013-05-15 15:13:00,
2013-05-15 10:18:00,65.8,45.1,28.67,WSW,248,4.3,4.3,47,0.00,,---,0.00,VWS V14.01,2013-05-15 15:18:00,
2013-05-15 10:20:00,63.3,44.9,28.64,WSW,248,4.3,4.3,51,0.00,,---,0.00,VWS V14.01,2013-05-15 15:20:00,
2013-05-15 10:23:00,66.0,44.1,28.67,SW,225,3.8,4.3,45,0.00,,---,0.00,VWS V14.01,2013-05-15 15:23:00,
2013-05-15 10:25:00,65.8,45.1,28.67,WSW,248,4.3,4.3,47,0.00,,---,0.00,VWS V14.01,2013-05-15 15:25:00,
2013-05-15 10:29:00,66.0,44.1,28.67,SW,225,5.4,5.4,45,0.00,,---,0.00,VWS V14.01,2013-05-15 15:29:00,
2013-05-15 10:34:00,68.9,46.1,28.67,WSW,248,6.7,6.7,44,0.00,,---,0.00,VWS V14.01,2013-05-15 15:34:00,
2013-05-15 10:39:00,68.9,46.1,28.67,WSW,248,6.3,6.7,44,0.00,,---,0.00,VWS V14.01,2013-05-15 15:39:00,
2013-05-15 10:44:00,69.1,44.4,28.67,WSW,248,5.4,7.8,41,0.00,,---,0.00,VWS V14.01,2013-05-15 15:44:00,
2013-05-15 10:49:00,69.1,45.7,28.64,WSW,248,5.8,6.3,43,0.00,,---,0.00,VWS V14.01,2013-05-15 15:49:00,
2013-05-15 10:50:00,68.9,46.1,28.67,WSW,248,7.8,7.8,44,0.00,,---,0.00,VWS V14.01,2013-05-15 15:50:00,
2013-05-15 10:54:00,68.7,44.7,28.64,SW,225,6.5,8.5,42,0.00,,---,0.00,VWS V14.01,2013-05-15 15:54:00,
2013-05-15 10:55:00,69.1,45.7,28.64,WSW,248,6.3,8.7,43,0.00,,---,0.00,VWS V14.01,2013-05-15 15:55:00,
2013-05-15 10:59:00,68.5,44.6,28.64,SW,225,6.3,8.5,42,0.00,,---,0.00,VWS V14.01,2013-05-15 15:59:00,
2013-05-15 11:00:00,68.7,44.1,28.64,WSW,248,6.5,8.1,41,0.00,,---,0.00,VWS V14.01,2013-05-15 16:00:00,
2013-05-15 11:04:00,68.5,45.2,28.67,WSW,248,7.6,9.2,43,0.00,,---,0.00,VWS V14.01,2013-05-15 16:04:00,
2013-05-15 11:05:00,68.7,44.7,28.64,WSW,248,5.8,8.5,42,0.00,,---,0.00,VWS V14.01,2013-05-15 16:05:00,
2013-05-15 11:09:00,67.5,44.2,28.67,SW,225,7.6,8.1,43,0.00,,---,0.00,VWS V14.01,2013-05-15 16:09:00,
2013-05-15 11:14:00,67.3,44.7,28.67,SW,225,8.7,8.7,44,0.00,,---,0.00,VWS V14.01,2013-05-15 16:14:00,
2013-05-15 11:15:00,67.6,44.4,28.67,SW,225,8.1,9.2,43,0.00,,---,0.00,VWS V14.01,2013-05-15 16:15:00,
2013-05-15 11:19:00,68.4,45.6,28.67,WSW,248,7.8,8.7,44,0.00,,---,0.00,VWS V14.01,2013-05-15 16:19:00,
2013-05-15 11:20:00,67.3,44.7,28.67,SW,225,8.7,10.5,44,0.00,,---,0.00,VWS V14.01,2013-05-15 16:20:00,
2013-05-15 11:25:00,69.3,45.8,28.67,WSW,248,9.0,9.0,43,0.00,,---,0.00,VWS V14.01,2013-05-15 16:25:00,
2013-05-15 11:30:00,69.6,46.2,28.67,WSW,248,8.1,8.7,43,0.00,,---,0.00,VWS V14.01,2013-05-15 16:30:00,
2013-05-15 11:35:00,70.9,46.0,28.67,WSW,248,9.8,9.8,41,0.00,,---,0.00,VWS V14.01,2013-05-15 16:35:00,
2013-05-15 11:40:00,71.4,45.9,28.67,WSW,248,6.3,8.1,40,0.00,,---,0.00,VWS V14.01,2013-05-15 16:40:00,
2013-05-15 11:45:00,72.1,45.8,28.67,WSW,248,7.8,8.1,39,0.00,,---,0.00,VWS V14.01,2013-05-15 16:45:00,
2013-05-15 11:50:00,72.9,45.8,28.70,WSW,248,8.1,9.4,38,0.00,,---,0.00,VWS V14.01,2013-05-15 16:50:00,
2013-05-15 11:55:00,74.1,46.9,28.70,WSW,248,8.1,8.5,38,0.00,,---,0.00,VWS V14.01,2013-05-15 16:55:00,
2013-05-15 12:00:00,73.4,45.6,28.70,SW,225,6.3,10.5,37,0.00,,---,0.00,VWS V14.01,2013-05-15 17:00:00,
2013-05-15 12:02:00,74.8,46.1,28.70,WSW,248,8.1,8.1,36,0.00,,---,0.00,VWS V14.01,2013-05-15 17:02:00,
2013-05-15 12:05:00,74.5,46.5,28.70,WSW,248,6.0,10.3,37,0.00,,---,0.00,VWS V14.01,2013-05-15 17:05:00,
2013-05-15 12:07:00,75.0,46.3,28.67,West,270,4.9,9.8,36,0.00,,---,0.00,VWS V14.01,2013-05-15 17:07:00,
2013-05-15 12:08:00,74.8,46.1,28.70,SW,225,7.6,8.7,36,0.00,,---,0.00,VWS V14.01,2013-05-15 17:08:00,
2013-05-15 12:10:00,74.7,46.0,28.67,WSW,248,7.4,8.1,36,0.00,,---,0.00,VWS V14.01,2013-05-15 17:10:00,
2013-05-15 12:12:00,75.4,45.9,28.67,NW,315,8.7,11.0,35,0.00,,---,0.00,VWS V14.01,2013-05-15 17:12:00,
2013-05-15 12:15:00,75.0,46.3,28.67,WNW,292,7.4,9.8,36,0.00,,---,0.00,VWS V14.01,2013-05-15 17:15:00,
2013-05-15 12:17:00,76.1,46.5,28.67,WNW,292,8.1,8.7,35,0.00,,---,0.00,VWS V14.01,2013-05-15 17:17:00,
2013-05-15 12:20:00,75.4,45.9,28.67,NW,315,8.7,11.0,35,0.00,,---,0.00,VWS V14.01,2013-05-15 17:20:00,
2013-05-15 12:23:00,76.8,46.3,28.67,WSW,248,7.2,8.7,34,0.00,,---,0.00,VWS V14.01,2013-05-15 17:23:00,
2013-05-15 12:25:00,76.1,46.5,28.67,WNW,292,8.1,8.7,35,0.00,,---,0.00,VWS V14.01,2013-05-15 17:25:00,
2013-05-15 12:28:00,77.0,46.5,28.67,WSW,248,10.1,10.1,34,0.00,,---,0.00,VWS V14.01,2013-05-15 17:28:00,
2013-05-15 12:30:00,76.8,46.3,28.67,WSW,248,7.6,8.7,34,0.00,,---,0.00,VWS V14.01,2013-05-15 17:30:00,
2013-05-15 12:33:00,77.9,47.3,28.64,WSW,248,5.6,5.6,34,0.00,,---,0.00,VWS V14.01,2013-05-15 17:33:00,
2013-05-15 12:35:00,77.0,46.5,28.67,WSW,248,8.7,10.5,34,0.00,,---,0.00,VWS V14.01,2013-05-15 17:35:00,
2013-05-15 12:38:00,79.3,47.8,28.64,WNW,292,12.3,13.0,33,0.00,,---,0.00,VWS V14.01,2013-05-15 17:38:00,
2013-05-15 12:40:00,77.9,47.3,28.64,WSW,248,4.0,10.3,34,0.00,,---,0.00,VWS V14.01,2013-05-15 17:40:00,
2013-05-15 12:43:00,80.4,47.9,28.64,WSW,248,9.6,10.7,32,0.00,,---,0.00,VWS V14.01,2013-05-15 17:43:00,
2013-05-15 12:45:00,79.3,47.8,28.64,WNW,292,12.3,13.0,33,0.00,,---,0.00,VWS V14.01,2013-05-15 17:45:00,
2013-05-15 12:48:00,78.6,47.1,28.64,WSW,248,6.3,8.5,33,0.00,,---,0.00,VWS V14.01,2013-05-15 17:48:00,
2013-05-15 12:50:00,80.4,47.9,28.64,West,270,10.7,12.3,32,0.00,,---,0.00,VWS V14.01,2013-05-15 17:50:00,
2013-05-15 12:53:00,78.1,46.7,28.64,WSW,248,5.8,8.7,33,0.00,,---,0.00,VWS V14.01,2013-05-15 17:53:00,
2013-05-15 12:55:00,78.6,47.1,28.64,WSW,248,8.1,12.5,33,0.00,,---,0.00,VWS V14.01,2013-05-15 17:55:00,
2013-05-15 12:58:00,78.6,47.1,28.64,West,270,6.3,8.5,33,0.00,,---,0.00,VWS V14.01,2013-05-15 17:58:00,
2013-05-15 13:00:00,78.1,47.5,28.64,WSW,248,8.7,8.7,34,0.00,,---,0.00,VWS V14.01,2013-05-15 18:00:00,
2013-05-15 13:03:00,79.3,47.0,28.64,WNW,292,10.5,10.5,32,0.00,,---,0.00,VWS V14.01,2013-05-15 18:03:00,
2013-05-15 13:05:00,78.6,47.1,28.64,West,270,6.5,10.7,33,0.00,,---,0.00,VWS V14.01,2013-05-15 18:05:00,
2013-05-15 13:08:00,79.9,47.4,28.64,West,270,3.6,8.1,32,0.00,,---,0.00,VWS V14.01,2013-05-15 18:08:00,
2013-05-15 13:10:00,80.1,47.6,28.64,West,270,7.8,13.0,32,0.00,,---,0.00,VWS V14.01,2013-05-15 18:10:00,
2013-05-15 13:14:00,79.9,47.4,28.64,WSW,248,6.9,8.7,32,0.00,,---,0.00,VWS V14.01,2013-05-15 18:14:00,
2013-05-15 13:15:00,79.5,47.1,28.64,SW,225,6.5,12.1,32,0.00,,---,0.00,VWS V14.01,2013-05-15 18:15:00,
2013-05-15 13:19:00,79.7,47.3,28.64,WNW,292,7.8,10.3,32,0.00,,---,0.00,VWS V14.01,2013-05-15 18:19:00,
2013-05-15 13:20:00,79.7,47.3,28.64,West,270,6.3,8.1,32,0.00,,---,0.00,VWS V14.01,2013-05-15 18:20:00,
2013-05-15 13:24:00,79.5,46.3,28.64,WNW,292,7.4,13.2,31,0.00,,---,0.00,VWS V14.01,2013-05-15 18:24:00,
2013-05-15 13:25:00,80.6,48.0,28.64,SSW,202,6.5,10.5,32,0.00,,---,0.00,VWS V14.01,2013-05-15 18:25:00,
2013-05-15 13:29:00,80.6,48.0,28.64,West,270,6.0,9.6,32,0.00,,---,0.00,VWS V14.01,2013-05-15 18:29:00,
2013-05-15 13:30:00,79.5,47.1,28.64,West,270,11.2,11.2,32,0.00,,---,0.00,VWS V14.01,2013-05-15 18:30:00,
2013-05-15 13:35:00,79.3,46.1,28.61,WNW,292,8.5,10.5,31,0.00,,---,0.00,VWS V14.01,2013-05-15 18:35:00,
2013-05-15 13:40:00,77.5,45.4,28.61,West,270,11.0,11.0,32,0.00,,---,0.00,VWS V14.01,2013-05-15 18:40:00,
2013-05-15 13:45:00,76.8,44.8,28.61,WSW,248,3.4,7.2,32,0.00,,---,0.00,VWS V14.01,2013-05-15 18:45:00,
2013-05-15 13:50:00,76.1,44.9,28.61,WSW,248,6.5,6.5,33,0.00,,---,0.00,VWS V14.01,2013-05-15 18:50:00,
2013-05-15 13:55:00,76.6,45.4,28.61,West,270,11.0,11.0,33,0.00,,---,0.00,VWS V14.01,2013-05-15 18:55:00,
2013-05-15 14:00:00,79.3,47.0,28.61,SW,225,5.8,7.8,32,0.00,,---,0.00,VWS V14.01,2013-05-15 19:00:00,
2013-05-15 14:05:00,80.4,47.9,28.61,SSW,202,2.5,4.3,32,0.00,,---,0.00,VWS V14.01,2013-05-15 19:05:00,
2013-05-15 14:10:00,82.0,48.5,28.61,SW,225,4.3,5.6,31,0.00,,---,0.00,VWS V14.01,2013-05-15 19:10:00,
2013-05-15 14:15:00,81.1,46.8,28.61,WSW,248,7.4,8.1,30,0.00,,---,0.00,VWS V14.01,2013-05-15 19:15:00,
2013-05-15 14:20:00,81.3,47.8,28.61,NW,315,10.7,10.7,31,0.00,,---,0.00,VWS V14.01,2013-05-15 19:20:00,
2013-05-15 14:25:00,82.2,47.7,28.61,WNW,292,7.6,13.0,30,0.00,,---,0.00,VWS V14.01,2013-05-15 19:25:00,
2013-05-15 14:30:00,83.7,48.1,28.61,WSW,248,8.1,14.8,29,0.00,,---,0.00,VWS V14.01,2013-05-15 19:30:00,
2013-05-15 14:35:00,83.7,49.0,28.61,WSW,248,5.8,10.5,30,0.00,,---,0.00,VWS V14.01,2013-05-15 19:35:00,
2013-05-15 14:40:00,81.1,45.9,28.61,WSW,248,4.0,11.4,29,0.00,,---,0.00,VWS V14.01,2013-05-15 19:40:00,
2013-05-15 14:45:00,80.2,46.0,28.61,West,270,8.5,13.2,30,0.00,,---,0.00,VWS V14.01,2013-05-15 19:45:00,
2013-05-15 14:50:00,79.5,45.4,28.61,WNW,292,12.1,15.7,30,0.00,,---,0.00,VWS V14.01,2013-05-15 19:50:00,
2013-05-15 14:55:00,79.9,45.7,28.61,NW,315,7.8,11.0,30,0.00,,---,0.00,VWS V14.01,2013-05-15 19:55:00,
2013-05-15 15:00:00,82.8,47.3,28.61,NNW,338,9.4,12.5,29,0.00,,---,0.00,VWS V14.01,2013-05-15 20:00:00,
2013-05-15 15:05:00,80.8,45.6,28.61,NNW,338,6.0,10.1,29,0.00,,---,0.00,VWS V14.01,2013-05-15 20:05:00,
2013-05-15 15:10:00,79.3,45.2,28.61,NNW,338,5.6,9.6,30,0.00,,---,0.00,VWS V14.01,2013-05-15 20:10:00,
2013-05-15 15:15:00,79.7,45.6,28.61,NW,315,8.5,16.3,30,0.00,,---,0.00,VWS V14.01,2013-05-15 20:15:00,
2013-05-15 15:20:00,81.0,45.8,28.61,North,0,3.4,12.3,29,0.00,,---,0.00,VWS V14.01,2013-05-15 20:20:00,
2013-05-15 15:25:00,80.4,45.3,28.61,WNW,292,9.8,16.1,29,0.00,,---,0.00,VWS V14.01,2013-05-15 20:25:00,
2013-05-15 15:30:00,81.5,45.3,28.61,WNW,292,10.3,16.1,28,0.00,,---,0.00,VWS V14.01,2013-05-15 20:30:00,
2013-05-15 15:36:00,80.8,45.6,28.61,WNW,292,10.3,17.7,29,0.00,,---,0.00,VWS V14.01,2013-05-15 20:36:00,
2013-05-15 15:40:00,81.1,44.0,28.61,West,270,13.6,16.1,27,0.00,,---,0.00,VWS V14.01,2013-05-15 20:40:00,
2013-05-15 15:41:00,81.5,43.3,28.61,WNW,292,7.2,14.8,26,0.00,,---,0.00,VWS V14.01,2013-05-15 20:41:00,
2013-05-15 15:45:00,80.8,44.7,28.61,WNW,292,11.0,17.7,28,0.00,,---,0.00,VWS V14.01,2013-05-15 20:45:00,
2013-05-15 15:47:00,82.0,41.7,28.61,West,270,10.5,15.7,24,0.00,,---,0.00,VWS V14.01,2013-05-15 20:47:00,
2013-05-15 15:50:00,81.5,43.3,28.61,WSW,248,5.8,14.8,26,0.00,,---,0.00,VWS V14.01,2013-05-15 20:50:00,
2013-05-15 15:52:00,82.8,43.4,28.61,WNW,292,8.5,13.0,25,0.00,,---,0.00,VWS V14.01,2013-05-15 20:52:00,
2013-05-15 15:55:00,82.2,41.9,28.61,West,270,9.8,15.7,24,0.00,,---,0.00,VWS V14.01,2013-05-15 20:55:00,
2013-05-15 15:57:00,82.2,42.9,28.61,WNW,292,6.3,10.7,25,0.00,,---,0.00,VWS V14.01,2013-05-15 20:57:00,
2013-05-15 16:00:00,82.4,42.0,28.61,WNW,292,10.5,13.4,24,0.00,,---,0.00,VWS V14.01,2013-05-15 21:00:00,
2013-05-15 16:02:00,81.5,41.3,28.61,WSW,248,10.7,17.0,24,0.00,,---,0.00,VWS V14.01,2013-05-15 21:02:00,
2013-05-15 16:05:00,82.0,42.8,28.61,West,270,8.1,11.0,25,0.00,,---,0.00,VWS V14.01,2013-05-15 21:05:00,
2013-05-15 16:07:00,80.6,40.5,28.61,NW,315,13.2,13.2,24,0.00,,---,0.00,VWS V14.01,2013-05-15 21:07:00,
2013-05-15 16:10:00,81.5,41.3,28.61,WSW,248,10.7,17.0,24,0.00,,---,0.00,VWS V14.01,2013-05-15 21:10:00,
2013-05-15 16:12:00,81.0,39.7,28.61,WNW,292,8.5,17.2,23,0.00,,---,0.00,VWS V14.01,2013-05-15 21:12:00,
2013-05-15 16:15:00,80.6,40.5,28.61,NNW,338,7.8,13.2,24,0.00,,---,0.00,VWS V14.01,2013-05-15 21:15:00,
2013-05-15 16:17:00,81.5,41.3,28.58,NNW,338,10.1,12.8,24,0.00,,---,0.00,VWS V14.01,2013-05-15 21:17:00,
2013-05-15 16:20:00,81.1,39.9,28.61,WNW,292,8.5,17.2,23,0.00,,---,0.00,VWS V14.01,2013-05-15 21:20:00,
2013-05-15 16:22:00,81.3,41.1,28.58,NW,315,14.8,16.1,24,0.00,,---,0.00,VWS V14.01,2013-05-15 21:22:00,
2013-05-15 16:25:00,81.1,41.0,28.58,NNW,338,8.7,12.8,24,0.00,,---,0.00,VWS V14.01,2013-05-15 21:25:00,
2013-05-15 16:27:00,81.9,41.6,28.58,WNW,292,18.6,22.2,24,0.00,,---,0.00,VWS V14.01,2013-05-15 21:27:00,
2013-05-15 16:30:00,81.3,41.1,28.58,NW,315,11.0,16.1,24,0.00,,---,0.00,VWS V14.01,2013-05-15 21:30:00,
2013-05-15 16:32:00,82.4,40.9,28.58,NW,315,15.2,15.4,23,0.00,,---,0.00,VWS V14.01,2013-05-15 21:32:00,
2013-05-15 16:35:00,82.2,41.9,28.58,WNW,292,14.5,22.2,24,0.00,,---,0.00,VWS V14.01,2013-05-15 21:35:00,
2013-05-15 16:38:00,80.4,40.4,28.58,WNW,292,9.8,9.8,24,0.00,,---,0.00,VWS V14.01,2013-05-15 21:38:00,
2013-05-15 16:40:00,82.4,40.9,28.58,NW,315,15.2,15.4,23,0.00,,---,0.00,VWS V14.01,2013-05-15 21:40:00,
2013-05-15 16:43:00,79.3,39.5,28.58,WNW,292,10.1,10.1,24,0.00,,---,0.00,VWS V14.01,2013-05-15 21:43:00,
2013-05-15 16:45:00,80.4,40.4,28.58,WNW,292,9.8,15.2,24,0.00,,---,0.00,VWS V14.01,2013-05-15 21:45:00,
2013-05-15 16:48:00,79.2,39.3,28.58,WNW,292,13.2,14.8,24,0.00,,---,0.00,VWS V14.01,2013-05-15 21:48:00,
2013-05-15 16:50:00,79.3,39.5,28.58,NW,315,7.8,14.5,24,0.00,,---,0.00,VWS V14.01,2013-05-15 21:50:00,
2013-05-15 16:53:00,79.9,41.0,28.58,North,0,7.2,10.3,25,0.00,,---,0.00,VWS V14.01,2013-05-15 21:53:00,
2013-05-15 16:55:00,79.2,39.3,28.58,NW,315,14.8,14.8,24,0.00,,---,0.00,VWS V14.01,2013-05-15 21:55:00,
2013-05-15 16:58:00,80.1,40.1,28.58,NNW,338,7.4,10.3,24,0.00,,---,0.00,VWS V14.01,2013-05-15 21:58:00,
2013-05-15 17:00:00,79.9,41.0,28.58,WSW,248,10.3,14.8,25,0.00,,---,0.00,VWS V14.01,2013-05-15 22:00:00,
2013-05-15 17:03:00,80.1,40.1,28.58,NW,315,10.7,10.7,24,0.00,,---,0.00,VWS V14.01,2013-05-15 22:03:00,
2013-05-15 17:05:00,80.1,40.1,28.58,NNW,338,7.4,10.3,24,0.00,,---,0.00,VWS V14.01,2013-05-15 22:05:00,
2013-05-15 17:08:00,80.1,39.0,28.58,NW,315,10.5,13.9,23,0.00,,---,0.00,VWS V14.01,2013-05-15 22:08:00,
2013-05-15 17:10:00,80.1,40.1,28.58,NNW,338,6.3,10.5,24,0.00,,---,0.00,VWS V14.01,2013-05-15 22:10:00,
2013-05-15 17:13:00,80.8,40.7,28.58,NW,315,8.1,9.8,24,0.00,,---,0.00,VWS V14.01,2013-05-15 22:13:00,
2013-05-15 17:15:00,80.1,39.0,28.58,NW,315,13.9,13.9,23,0.00,,---,0.00,VWS V14.01,2013-05-15 22:15:00,
2013-05-15 17:18:00,81.7,40.3,28.58,NW,315,7.6,12.5,23,0.00,,---,0.00,VWS V14.01,2013-05-15 22:18:00,
2013-05-15 17:20:00,80.8,40.7,28.58,NW,315,6.5,13.9,24,0.00,,---,0.00,VWS V14.01,2013-05-15 22:20:00,
2013-05-15 17:23:00,82.4,39.8,28.58,WNW,292,7.8,11.0,22,0.00,,---,0.00,VWS V14.01,2013-05-15 22:23:00,
2013-05-15 17:25:00,81.7,40.3,28.58,NW,315,12.5,12.5,23,0.00,,---,0.00,VWS V14.01,2013-05-15 22:25:00,
2013-05-15 17:29:00,82.6,38.7,28.58,WNW,292,9.8,12.5,21,0.00,,---,0.00,VWS V14.01,2013-05-15 22:29:00,
2013-05-15 17:30:00,82.2,39.6,28.58,NW,315,11.0,13.9,22,0.00,,---,0.00,VWS V14.01,2013-05-15 22:30:00,
2013-05-15 17:34:00,82.8,40.1,28.55,NW,315,12.8,12.8,22,0.00,,---,0.00,VWS V14.01,2013-05-15 22:34:00,
2013-05-15 17:35:00,82.4,38.6,28.58,NNW,338,7.2,13.0,21,0.00,,---,0.00,VWS V14.01,2013-05-15 22:35:00,
2013-05-15 17:39:00,82.2,39.6,28.55,West,270,8.7,12.3,22,0.00,,---,0.00,VWS V14.01,2013-05-15 22:39:00,
2013-05-15 17:40:00,82.8,40.1,28.55,NW,315,8.7,12.5,22,0.00,,---,0.00,VWS V14.01,2013-05-15 22:40:00,
2013-05-15 17:44:00,81.3,37.7,28.55,WNW,292,11.0,11.0,21,0.00,,---,0.00,VWS V14.01,2013-05-15 22:44:00,
2013-05-15 17:45:00,82.4,38.6,28.55,West,270,12.3,16.8,21,0.00,,---,0.00,VWS V14.01,2013-05-15 22:45:00,
2013-05-15 17:49:00,81.1,38.7,28.55,WSW,248,12.8,16.6,22,0.00,,---,0.00,VWS V14.01,2013-05-15 22:49:00,
2013-05-15 17:50:00,81.3,37.7,28.55,NW,315,7.8,13.2,21,0.00,,---,0.00,VWS V14.01,2013-05-15 22:50:00,
2013-05-15 17:54:00,80.4,39.3,28.55,WNW,292,10.3,11.2,23,0.00,,---,0.00,VWS V14.01,2013-05-15 22:54:00,
2013-05-15 17:55:00,81.5,39.0,28.55,WSW,248,16.6,16.6,22,0.00,,---,0.00,VWS V14.01,2013-05-15 22:55:00,
2013-05-15 17:59:00,79.7,38.7,28.55,WNW,292,13.0,13.0,23,0.00,,---,0.00,VWS V14.01,2013-05-15 22:59:00,
2013-05-15 18:00:00,81.1,39.9,28.55,NW,315,10.7,16.6,23,0.00,,---,0.00,VWS V14.01,2013-05-15 23:00:00,
2013-05-15 18:04:00,79.5,38.5,28.55,NW,315,6.3,12.8,23,0.00,,---,0.00,VWS V14.01,2013-05-15 23:04:00,
2013-05-15 18:05:00,79.9,38.8,28.55,NW,315,9.8,13.0,23,0.00,,---,0.00,VWS V14.01,2013-05-15 23:05:00,
2013-05-15 18:09:00,79.9,39.9,28.55,NW,315,5.8,10.5,24,0.00,,---,0.00,VWS V14.01,2013-05-15 23:09:00,
2013-05-15 18:10:00,79.5,39.6,28.55,NW,315,12.8,14.8,24,0.00,,---,0.00,VWS V14.01,2013-05-15 23:10:00,
2013-05-15 18:14:00,80.4,40.4,28.55,NW,315,10.7,12.1,24,0.00,,---,0.00,VWS V14.01,2013-05-15 23:14:00,
2013-05-15 18:15:00,79.7,38.7,28.55,NNW,338,10.5,12.8,23,0.00,,---,0.00,VWS V14.01,2013-05-15 23:15:00,
2013-05-15 18:19:00,79.7,39.8,28.55,NNW,338,8.1,12.3,24,0.00,,---,0.00,VWS V14.01,2013-05-15 23:19:00,
2013-05-15 18:20:00,80.2,40.2,28.55,WNW,292,8.1,10.5,24,0.00,,---,0.00,VWS V14.01,2013-05-15 23:20:00,
2013-05-15 18:24:00,79.7,38.7,28.55,NW,315,8.5,13.2,23,0.00,,---,0.00,VWS V14.01,2013-05-15 23:24:00,
2013-05-15 18:25:00,80.1,40.1,28.55,NW,315,6.5,12.1,24,0.00,,---,0.00,VWS V14.01,2013-05-15 23:25:00,
2013-05-15 18:29:00,79.5,38.5,28.55,WSW,248,10.3,12.5,23,0.00,,---,0.00,VWS V14.01,2013-05-15 23:29:00,
2013-05-15 18:30:00,79.7,38.7,28.55,NW,315,10.3,12.5,23,0.00,,---,0.00,VWS V14.01,2013-05-15 23:30:00,
2013-05-15 18:34:00,79.5,39.6,28.55,West,270,7.4,10.5,24,0.00,,---,0.00,VWS V14.01,2013-05-15 23:34:00,
2013-05-15 18:35:00,79.7,38.7,28.55,SSW,202,10.3,13.2,23,0.00,,---,0.00,VWS V14.01,2013-05-15 23:35:00,
2013-05-15 18:40:00,79.7,38.7,28.55,NW,315,6.5,11.4,23,0.00,,---,0.00,VWS V14.01,2013-05-15 23:40:00,
2013-05-15 18:45:00,79.9,41.0,28.55,NW,315,13.0,13.0,25,0.00,,---,0.00,VWS V14.01,2013-05-15 23:45:00,
2013-05-15 18:50:00,79.3,39.5,28.55,West,270,13.0,16.3,24,0.00,,---,0.00,VWS V14.01,2013-05-15 23:50:00,
2013-05-15 18:55:00,79.0,39.2,28.55,West,270,10.3,15.4,24,0.00,,---,0.00,VWS V14.01,2013-05-15 23:55:00,
2013-05-15 19:00:00,78.4,38.7,28.55,WSW,248,16.8,16.8,24,0.00,,---,0.00,VWS V14.01,2013-05-16 00:00:00,
2013-05-15 19:05:00,77.2,38.7,28.55,WSW,248,8.5,10.5,25,0.00,,---,0.00,VWS V14.01,2013-05-16 00:05:00,
2013-05-15 19:10:00,76.8,38.4,28.55,West,270,13.0,13.2,25,0.00,,---,0.00,VWS V14.01,2013-05-16 00:10:00,
2013-05-15 19:15:00,76.5,40.0,28.55,WNW,292,7.4,9.8,27,0.00,,---,0.00,VWS V14.01,2013-05-16 00:15:00,
2013-05-15 19:20:00,76.3,39.9,28.55,NW,315,9.8,13.0,27,0.00,,---,0.00,VWS V14.01,2013-05-16 00:20:00,
2013-05-15 19:25:00,76.3,40.8,28.55,West,270,10.5,11.0,28,0.00,,---,0.00,VWS V14.01,2013-05-16 00:25:00,
2013-05-15 19:26:00,75.9,40.5,28.55,WNW,292,5.4,8.7,28,0.00,,---,0.00,VWS V14.01,2013-05-16 00:26:00,
2013-05-15 19:30:00,76.3,40.8,28.55,WNW,292,7.6,13.0,28,0.00,,---,0.00,VWS V14.01,2013-05-16 00:30:00,
2013-05-15 19:31:00,75.6,41.1,28.55,WNW,292,4.9,8.7,29,0.00,,---,0.00,VWS V14.01,2013-05-16 00:31:00,
2013-05-15 19:35:00,75.7,41.3,28.55,WNW,292,6.3,8.7,29,0.00,,---,0.00,VWS V14.01,2013-05-16 00:35:00,
2013-05-15 19:36:00,75.4,41.8,28.55,West,270,9.8,9.8,30,0.00,,---,0.00,VWS V14.01,2013-05-16 00:36:00,
2013-05-15 19:40:00,75.6,41.1,28.55,WNW,292,8.7,8.7,29,0.00,,---,0.00,VWS V14.01,2013-05-16 00:40:00,
2013-05-15 19:41:00,75.4,42.7,28.55,WNW,292,9.4,10.1,31,0.00,,---,0.00,VWS V14.01,2013-05-16 00:41:00,
2013-05-15 19:45:00,75.4,41.8,28.55,NW,315,8.1,9.8,30,0.00,,---,0.00,VWS V14.01,2013-05-16 00:45:00,
2013-05-15 19:46:00,75.4,42.7,28.55,NW,315,5.8,9.6,31,0.00,,---,0.00,VWS V14.01,2013-05-16 00:46:00,
2013-05-15 19:50:00,75.6,42.8,28.55,WSW,248,8.1,11.0,31,0.00,,---,0.00,VWS V14.01,2013-05-16 00:50:00,
2013-05-15 19:51:00,75.4,42.7,28.55,WNW,292,7.8,13.0,31,0.00,,---,0.00,VWS V14.01,2013-05-16 00:51:00,
2013-05-15 19:55:00,75.4,42.7,28.55,West,270,8.1,9.6,31,0.00,,---,0.00,VWS V14.01,2013-05-16 00:55:00,
2013-05-15 19:56:00,75.4,42.7,28.55,NW,315,8.1,12.1,31,0.00,,---,0.00,VWS V14.01,2013-05-16 00:56:00,
2013-05-15 20:00:00,75.4,42.7,28.55,WNW,292,9.6,13.2,31,0.00,,---,0.00,VWS V14.01,2013-05-16 01:00:00,
2013-05-15 20:02:00,75.0,43.2,28.55,WNW,292,8.5,11.9,32,0.00,,---,0.00,VWS V14.01,2013-05-16 01:02:00,
2013-05-15 20:05:00,75.2,43.3,28.55,WNW,292,8.1,12.1,32,0.00,,---,0.00,VWS V14.01,2013-05-16 01:05:00,
2013-05-15 20:07:00,74.5,42.7,28.55,West,270,5.4,9.8,32,0.00,,---,0.00,VWS V14.01,2013-05-16 01:07:00,
2013-05-15 20:10:00,74.8,43.0,28.55,West,270,9.6,11.9,32,0.00,,---,0.00,VWS V14.01,2013-05-16 01:10:00,
2013-05-15 20:12:00,74.3,42.6,28.55,West,270,5.4,8.7,32,0.00,,---,0.00,VWS V14.01,2013-05-16 01:12:00,
2013-05-15 20:15:00,74.5,42.7,28.55,WNW,292,6.5,9.8,32,0.00,,---,0.00,VWS V14.01,2013-05-16 01:15:00,
2013-05-15 20:17:00,73.8,42.9,28.55,WSW,248,10.5,12.8,33,0.00,,---,0.00,VWS V14.01,2013-05-16 01:17:00,
2013-05-15 20:20:00,74.3,43.4,28.55,WSW,248,6.5,8.7,33,0.00,,---,0.00,VWS V14.01,2013-05-16 01:20:00,
2013-05-15 20:22:00,73.6,42.7,28.55,WSW,248,7.8,12.1,33,0.00,,---,0.00,VWS V14.01,2013-05-16 01:22:00,
2013-05-15 20:25:00,73.8,42.1,28.55,West,270,5.8,12.8,32,0.00,,---,0.00,VWS V14.01,2013-05-16 01:25:00,
2013-05-15 20:27:00,73.0,43.0,28.55,West,270,7.8,9.0,34,0.00,,---,0.00,VWS V14.01,2013-05-16 01:27:00,
2013-05-15 20:30:00,73.4,42.6,28.55,WSW,248,9.0,12.1,33,0.00,,---,0.00,VWS V14.01,2013-05-16 01:30:00,
2013-05-15 20:32:00,72.5,42.6,28.55,WNW,292,7.4,10.3,34,0.00,,---,0.00,VWS V14.01,2013-05-16 01:32:00,
2013-05-15 20:35:00,73.0,43.0,28.55,West,270,7.8,9.0,34,0.00,,---,0.00,VWS V14.01,2013-05-16 01:35:00,
2013-05-15 20:37:00,72.1,42.2,28.55,West,270,8.1,13.2,34,0.00,,---,0.00,VWS V14.01,2013-05-16 01:37:00,
2013-05-15 20:40:00,72.5,42.6,28.55,WNW,292,6.9,10.3,34,0.00,,---,0.00,VWS V14.01,2013-05-16 01:40:00,
2013-05-15 20:42:00,71.8,41.9,28.55,WSW,248,7.6,10.7,34,0.00,,---,0.00,VWS V14.01,2013-05-16 01:42:00,
2013-05-15 20:45:00,72.1,42.2,28.55,WSW,248,8.5,13.2,34,0.00,,---,0.00,VWS V14.01,2013-05-16 01:45:00,
2013-05-15 20:47:00,71.6,42.5,28.58,WNW,292,8.7,12.5,35,0.00,,---,0.00,VWS V14.01,2013-05-16 01:47:00,
2013-05-15 20:50:00,71.8,41.9,28.55,WSW,248,7.6,10.7,34,0.00,,---,0.00,VWS V14.01,2013-05-16 01:50:00,
2013-05-15 20:52:00,71.2,42.9,28.58,WSW,248,4.9,4.9,36,0.00,,---,0.00,VWS V14.01,2013-05-16 01:52:00,
2013-05-15 20:55:00,71.6,42.5,28.58,WNW,292,8.7,12.5,35,0.00,,---,0.00,VWS V14.01,2013-05-16 01:55:00,
2013-05-15 20:57:00,70.0,43.9,28.58,WNW,292,2.9,5.8,39,0.00,,---,0.00,VWS V14.01,2013-05-16 01:57:00,
2013-05-15 21:00:00,71.2,42.9,28.58,WSW,248,4.9,8.7,36,0.00,,---,0.00,VWS V14.01,2013-05-16 02:00:00,
2013-05-15 21:03:00,68.9,43.0,28.55,West,270,3.6,4.3,39,0.00,,---,0.00,VWS V14.01,2013-05-16 02:03:00,
2013-05-15 21:05:00,70.0,43.9,28.58,WNW,292,2.9,5.8,39,0.00,,---,0.00,VWS V14.01,2013-05-16 02:05:00,
2013-05-15 21:08:00,68.4,43.8,28.55,West,270,4.9,5.6,41,0.00,,---,0.00,VWS V14.01,2013-05-16 02:08:00,
2013-05-15 21:10:00,69.1,43.1,28.55,WSW,248,4.0,4.9,39,0.00,,---,0.00,VWS V14.01,2013-05-16 02:10:00,
2013-05-15 21:13:00,67.6,44.4,28.55,West,270,4.0,4.3,43,0.00,,---,0.00,VWS V14.01,2013-05-16 02:13:00,
2013-05-15 21:15:00,68.4,43.8,28.55,West,270,4.9,5.6,41,0.00,,---,0.00,VWS V14.01,2013-05-16 02:15:00,
2013-05-15 21:18:00,67.1,44.5,28.58,West,270,2.9,3.6,44,0.00,,---,0.00,VWS V14.01,2013-05-16 02:18:00,
2013-05-15 21:20:00,67.6,43.8,28.55,WSW,248,3.8,5.4,42,0.00,,---,0.00,VWS V14.01,2013-05-16 02:20:00,
2013-05-15 21:23:00,66.7,44.8,28.58,WSW,248,3.6,4.3,45,0.00,,---,0.00,VWS V14.01,2013-05-16 02:23:00,
2013-05-15 21:25:00,67.3,44.0,28.58,West,270,3.1,4.5,43,0.00,,---,0.00,VWS V14.01,2013-05-16 02:25:00,
2013-05-15 21:28:00,66.2,44.2,28.58,West,270,4.3,4.3,45,0.00,,---,0.00,VWS V14.01,2013-05-16 02:28:00,
2013-05-15 21:30:00,66.7,44.7,28.58,West,270,3.8,4.9,45,0.00,,---,0.00,VWS V14.01,2013-05-16 02:30:00,
2013-05-15 21:33:00,66.0,44.7,28.55,WSW,248,3.8,5.4,46,0.00,,---,0.00,VWS V14.01,2013-05-16 02:33:00,
2013-05-15 21:35:00,66.4,44.4,28.58,West,270,4.0,6.0,45,0.00,,---,0.00,VWS V14.01,2013-05-16 02:35:00,
2013-05-15 21:38:00,65.8,45.1,28.55,WNW,292,3.8,4.3,47,0.00,,---,0.00,VWS V14.01,2013-05-16 02:38:00,
2013-05-15 21:40:00,66.0,44.1,28.55,WSW,248,5.4,5.6,45,0.00,,---,0.00,VWS V14.01,2013-05-16 02:40:00,
2013-05-15 21:43:00,65.7,44.9,28.55,West,270,3.4,4.7,47,0.00,,---,0.00,VWS V14.01,2013-05-16 02:43:00,
2013-05-15 21:45:00,65.8,45.1,28.55,WSW,248,4.3,5.4,47,0.00,,---,0.00,VWS V14.01,2013-05-16 02:45:00,
2013-05-15 21:48:00,65.5,44.2,28.58,WNW,292,3.6,3.8,46,0.00,,---,0.00,VWS V14.01,2013-05-16 02:48:00,
2013-05-15 21:50:00,65.8,45.1,28.55,WSW,248,4.7,4.7,47,0.00,,---,0.00,VWS V14.01,2013-05-16 02:50:00,
2013-05-15 21:53:00,65.3,44.6,28.58,WSW,248,3.1,3.8,47,0.00,,---,0.00,VWS V14.01,2013-05-16 02:53:00,
2013-05-15 21:55:00,65.5,44.2,28.58,West,270,3.8,4.7,46,0.00,,---,0.00,VWS V14.01,2013-05-16 02:55:00,
2013-05-15 21:58:00,65.1,45.0,28.58,WSW,248,3.6,4.3,48,0.00,,---,0.00,VWS V14.01,2013-05-16 02:58:00,
2013-05-15 22:00:00,65.3,44.6,28.58,West,270,3.4,4.3,47,0.00,,---,0.00,VWS V14.01,2013-05-16 03:00:00,
2013-05-15 22:03:00,64.2,45.7,28.58,WSW,248,3.4,3.6,51,0.00,,---,0.00,VWS V14.01,2013-05-16 03:03:00,
2013-05-15 22:05:00,65.1,44.4,28.58,WSW,248,4.3,4.3,47,0.00,,---,0.00,VWS V14.01,2013-05-16 03:05:00,
2013-05-15 22:09:00,63.3,46.4,28.58,WSW,248,3.1,3.4,54,0.00,,---,0.00,VWS V14.01,2013-05-16 03:09:00,
2013-05-15 22:10:00,64.2,45.2,28.58,WSW,248,3.1,4.3,50,0.00,,---,0.00,VWS V14.01,2013-05-16 03:10:00,
2013-05-15 22:14:00,63.3,45.4,28.58,WSW,248,4.3,4.3,52,0.00,,---,0.00,VWS V14.01,2013-05-16 03:14:00,
2013-05-15 22:15:00,63.5,46.1,28.58,WSW,248,3.4,3.6,53,0.00,,---,0.00,VWS V14.01,2013-05-16 03:15:00,
2013-05-15 22:19:00,63.0,46.6,28.58,WSW,248,4.3,4.3,55,0.00,,---,0.00,VWS V14.01,2013-05-16 03:19:00,
2013-05-15 22:20:00,63.3,45.4,28.58,WSW,248,4.0,4.0,52,0.00,,---,0.00,VWS V14.01,2013-05-16 03:20:00,
2013-05-15 22:25:00,63.0,45.1,28.58,WSW,248,4.3,4.3,52,0.00,,---,0.00,VWS V14.01,2013-05-16 03:25:00,
2013-05-15 22:30:00,63.1,45.2,28.58,WSW,248,3.6,4.3,52,0.00,,---,0.00,VWS V14.01,2013-05-16 03:30:00,
2013-05-15 22:35:00,63.3,44.4,28.58,WSW,248,3.6,3.8,50,0.00,,---,0.00,VWS V14.01,2013-05-16 03:35:00,
2013-05-15 22:40:00,63.5,44.5,28.58,WSW,248,3.8,4.3,50,0.00,,---,0.00,VWS V14.01,2013-05-16 03:40:00,
2013-05-15 22:45:00,63.7,44.2,28.58,WSW,248,4.0,5.4,49,0.00,,---,0.00,VWS V14.01,2013-05-16 03:45:00,
2013-05-15 22:50:00,63.7,43.6,28.58,WSW,248,4.0,5.4,48,0.00,,---,0.00,VWS V14.01,2013-05-16 03:50:00,
2013-05-15 22:55:00,63.5,44.5,28.58,WNW,292,5.4,5.6,50,0.00,,---,0.00,VWS V14.01,2013-05-16 03:55:00,
2013-05-15 23:00:00,63.9,44.3,28.58,West,270,4.0,5.4,49,0.00,,---,0.00,VWS V14.01,2013-05-16 04:00:00,
2013-05-15 23:01:00,62.8,43.4,28.58,WSW,248,4.9,6.3,49,0.00,,---,0.00,VWS V14.01,2013-05-16 04:01:00,
2013-05-15 23:05:00,63.1,43.7,28.58,WNW,292,5.8,5.8,49,0.00,,---,0.00,VWS V14.01,2013-05-16 04:05:00,
2013-05-15 23:06:00,62.6,43.7,28.58,WSW,248,4.9,6.3,50,0.00,,---,0.00,VWS V14.01,2013-05-16 04:06:00,
2013-05-15 23:11:00,62.2,43.9,28.58,WSW,248,5.4,5.8,51,0.00,,---,0.00,VWS V14.01,2013-05-16 04:11:00,
2013-05-15 23:15:00,62.6,43.7,28.58,West,270,5.8,6.3,50,0.00,,---,0.00,VWS V14.01,2013-05-16 04:15:00,
2013-05-15 23:16:00,62.1,43.2,28.58,WSW,248,5.4,5.6,50,0.00,,---,0.00,VWS V14.01,2013-05-16 04:16:00,
2013-05-15 23:20:00,62.2,43.9,28.58,West,270,4.9,5.8,51,0.00,,---,0.00,VWS V14.01,2013-05-16 04:20:00,
2013-05-15 23:21:00,62.2,43.4,28.58,WSW,248,5.4,6.5,50,0.00,,---,0.00,VWS V14.01,2013-05-16 04:21:00,
2013-05-15 23:25:00,62.1,43.2,28.58,WSW,248,5.4,5.6,50,0.00,,---,0.00,VWS V14.01,2013-05-16 04:25:00,
2013-05-15 23:26:00,62.2,42.9,28.58,WSW,248,5.8,7.4,49,0.00,,---,0.00,VWS V14.01,2013-05-16 04:26:00,
2013-05-15 23:30:00,62.2,43.4,28.58,WNW,292,7.4,7.4,50,0.00,,---,0.00,VWS V14.01,2013-05-16 04:30:00,
2013-05-15 23:31:00,62.6,43.2,28.61,West,270,5.6,7.6,49,0.00,,---,0.00,VWS V14.01,2013-05-16 04:31:00,
2013-05-15 23:35:00,62.2,42.9,28.58,WSW,248,5.8,7.4,49,0.00,,---,0.00,VWS V14.01,2013-05-16 04:35:00,
2013-05-15 23:36:00,62.6,43.7,28.61,WSW,248,4.9,6.5,50,0.00,,---,0.00,VWS V14.01,2013-05-16 04:36:00,
2013-05-15 23:40:00,62.6,43.2,28.61,WSW,248,4.9,7.6,49,0.00,,---,0.00,VWS V14.01,2013-05-16 04:40:00,
2013-05-15 23:41:00,62.1,43.7,28.61,WSW,248,4.3,6.3,51,0.00,,---,0.00,VWS V14.01,2013-05-16 04:41:00,
2013-05-15 23:45:00,62.6,43.7,28.61,WSW,248,4.9,6.5,50,0.00,,---,0.00,VWS V14.01,2013-05-16 04:45:00,
2013-05-15 23:46:00,61.7,43.4,28.61,WSW,248,4.9,6.3,51,0.00,,---,0.00,VWS V14.01,2013-05-16 04:46:00,
2013-05-15 23:50:00,62.1,43.7,28.61,WSW,248,4.3,6.3,51,0.00,,---,0.00,VWS V14.01,2013-05-16 04:50:00,
2013-05-15 23:51:00,61.2,43.4,28.61,WSW,248,5.6,6.3,52,0.00,,---,0.00,VWS V14.01,2013-05-16 04:51:00,
2013-05-15 23:55:00,61.5,43.8,28.61,WNW,292,5.8,6.3,52,0.00,,---,0.00,VWS V14.01,2013-05-16 04:55:00,
2013-05-15 23:56:00,61.2,42.9,28.61,WSW,248,4.9,6.3,51,0.00,,---,0.00,VWS V14.01,2013-05-16 04:56:00,